Location: *
(46.1866°S, 178.5290°W)
Time: 05:39:34
(UTC+00:00)

CZ-4B R/B - Pass Details

Date: 22 September 2021
Orbit: 809 x 881 km, 99.1° (Epoch: 17 October)

Event Time Altitude Azimuth Distance (km) Brightness Sun altitude
Rises 08:15:12 0° 175° (S) 3,382 6.6 -24.8°
Reaches altitude 10° 08:17:54 10° 187° (S) 2,437 6.0 -25.2°
Maximum altitude 08:22:14 26° 241° (WSW) 1,586 5.3 -25.9°
Drops below altitude 10° 08:26:32 10° 295° (WNW) 2,412 6.0 -26.5°
Sets 08:29:13 0° 307° (NW) 3,339 6.6 -26.9°
